CXA8083 ZSJN-ZYHB

Flight info

Callsign CXA8083
Flight time N/A
Altitude 35100
Route BASOV7Y BASOV W4 REPOL V42 GUMED W5 MAKNO W106 UDETI A588 NULRA W206 MAGBI W656 ISLUK W629 LARUN LAR29A
Aircraft B738/M-SDE2E3FGHIRWXY/LB1

Departure

Time N/A
Airport Jinan Yaoqiang International Airport (ZSJN)

Arrival

Time 2026-04-23 14:44
Airport Harbin Taiping International Airport (ZYHB)
Time Latitude Longitude Altitude Speed Heading
2026-04-23 13:42 39.54696 122.81683 35114 ft 454 kts 27°
2026-04-23 13:42 39.60218 122.85653 35113 ft 454 kts 27°
2026-04-23 13:43 39.65708 122.89604 35117 ft 454 kts 27°
2026-04-23 13:43 39.71236 122.93589 35109 ft 455 kts 27°
2026-04-23 13:44 39.76768 122.97584 35111 ft 455 kts 27°
2026-04-23 13:44 39.82296 123.01583 35122 ft 455 kts 27°
2026-04-23 13:45 39.86895 123.04916 35108 ft 455 kts 27°
2026-04-23 13:45 39.93361 123.09612 35110 ft 455 kts 27°
2026-04-23 13:46 39.98887 123.13633 35112 ft 455 kts 27°
2026-04-23 13:46 40.04422 123.17667 35109 ft 455 kts 27°
2026-04-23 13:47 40.09026 123.20995 35109 ft 455 kts 26°
2026-04-23 13:47 40.14585 123.24980 35106 ft 456 kts 26°
2026-04-23 13:48 40.20139 123.28972 35113 ft 456 kts 26°
2026-04-23 13:48 40.26589 123.33626 35110 ft 456 kts 26°
2026-04-23 13:49 40.32137 123.37640 35108 ft 455 kts 26°
2026-04-23 13:49 40.36782 123.41006 35101 ft 455 kts 26°
2026-04-23 13:50 40.42290 123.45005 35116 ft 455 kts 26°
2026-04-23 13:50 40.47837 123.49039 35109 ft 456 kts 26°
2026-04-23 13:51 40.53381 123.53080 35102 ft 456 kts 26°
2026-04-23 13:51 40.58925 123.57127 35109 ft 455 kts 26°
2026-04-23 13:52 40.64464 123.61174 35102 ft 455 kts 26°
2026-04-23 13:52 40.70000 123.65226 35097 ft 455 kts 26°
2026-04-23 13:53 40.75536 123.69288 35104 ft 455 kts 26°
2026-04-23 13:53 40.81029 123.73326 35102 ft 455 kts 26°
2026-04-23 13:54 40.86565 123.77363 35096 ft 454 kts 25°
2026-04-23 13:54 40.92123 123.81317 35100 ft 453 kts 25°
2026-04-23 13:55 40.97674 123.85265 35089 ft 453 kts 25°
2026-04-23 13:55 41.03211 123.89226 35088 ft 452 kts 25°
2026-04-23 13:56 41.08744 123.93199 35094 ft 452 kts 25°
2026-04-23 13:56 41.14275 123.97179 35087 ft 452 kts 25°
2026-04-23 13:57 41.19802 124.01163 35079 ft 452 kts 25°
2026-04-23 13:57 41.25320 124.05149 35078 ft 451 kts 24°
2026-04-23 13:58 41.30831 124.09137 35083 ft 451 kts 24°
2026-04-23 13:58 41.36302 124.13104 35070 ft 451 kts 24°
2026-04-23 13:59 41.41810 124.17110 35073 ft 451 kts 24°
2026-04-23 13:59 41.47282 124.21204 35066 ft 451 kts 25°
2026-04-23 14:00 41.51850 124.24660 35062 ft 450 kts 25°
2026-04-23 14:00 41.58187 124.29452 35066 ft 451 kts 25°
2026-04-23 14:01 41.63646 124.33577 35061 ft 451 kts 25°
2026-04-23 14:01 41.69107 124.37710 35059 ft 451 kts 25°
2026-04-23 14:02 41.74574 124.41857 35052 ft 452 kts 25°
2026-04-23 14:02 41.80039 124.46011 35054 ft 452 kts 25°
2026-04-23 14:03 41.85502 124.50172 35072 ft 452 kts 25°
2026-04-23 14:03 41.90965 124.54341 35055 ft 452 kts 25°
2026-04-23 14:04 41.96402 124.58497 35051 ft 452 kts 25°
2026-04-23 14:04 42.01912 124.62561 35064 ft 451 kts 22°
2026-04-23 14:05 42.07513 124.66343 35055 ft 451 kts 21°
2026-04-23 14:05 42.13123 124.70120 35050 ft 451 kts 22°
2026-04-23 14:06 42.18716 124.73943 35053 ft 451 kts 22°
2026-04-23 14:06 42.24306 124.77796 35050 ft 451 kts 22°
2026-04-23 14:07 42.29892 124.81658 35045 ft 451 kts 22°
2026-04-23 14:07 42.38267 124.87461 35043 ft 451 kts 22°
2026-04-23 14:08 42.43850 124.91338 35040 ft 451 kts 22°
2026-04-23 14:08 42.49431 124.95222 35034 ft 451 kts 22°
2026-04-23 14:09 42.54971 124.99086 35049 ft 451 kts 21°
2026-04-23 14:09 42.60563 125.02992 35036 ft 452 kts 21°
2026-04-23 14:10 42.66157 125.06908 35033 ft 453 kts 21°
2026-04-23 14:10 42.71764 125.10843 35036 ft 454 kts 21°
2026-04-23 14:11 42.77377 125.14789 35035 ft 454 kts 21°
2026-04-23 14:11 42.82993 125.18744 35033 ft 455 kts 21°
2026-04-23 14:12 42.88629 125.22665 35043 ft 455 kts 21°
2026-04-23 14:12 42.94272 125.26572 35031 ft 455 kts 21°
2026-04-23 14:13 42.99878 125.30466 35020 ft 455 kts 21°
2026-04-23 14:13 43.05517 125.34398 35051 ft 455 kts 21°
2026-04-23 14:14 43.11151 125.38336 35032 ft 454 kts 20°
2026-04-23 14:14 43.16773 125.42274 35017 ft 454 kts 20°
2026-04-23 14:15 43.22385 125.46214 35033 ft 452 kts 20°
2026-04-23 14:15 43.27982 125.50151 35030 ft 452 kts 20°
2026-04-23 14:16 43.33542 125.54069 35025 ft 452 kts 20°
2026-04-23 14:16 43.39130 125.58015 35021 ft 451 kts 20°
2026-04-23 14:17 43.44710 125.61965 35017 ft 451 kts 20°
2026-04-23 14:17 43.50285 125.65919 35021 ft 451 kts 20°
2026-04-23 14:18 43.55857 125.69879 35022 ft 451 kts 20°
2026-04-23 14:18 43.61430 125.73848 35024 ft 451 kts 20°
2026-04-23 14:19 43.67011 125.77832 35025 ft 452 kts 20°
2026-04-23 14:19 43.72596 125.81827 35029 ft 452 kts 20°
2026-04-23 14:20 43.78255 125.85313 35037 ft 442 kts
2026-04-23 14:20 43.84221 125.86677 35039 ft 433 kts
2026-04-23 14:21 43.90204 125.87812 35036 ft 435 kts
2026-04-23 14:21 43.93167 125.88815 35031 ft 444 kts 13°
2026-04-23 14:21 43.96026 125.90507 35064 ft 451 kts 20°
2026-04-23 14:22 44.01222 125.95599 34923 ft 464 kts 33°
2026-04-23 14:22 44.03711 125.98512 34329 ft 467 kts 33°
2026-04-23 14:22 44.06284 126.01157 33659 ft 455 kts 23°
2026-04-23 14:23 44.09090 126.03058 32966 ft 443 kts 13°
2026-04-23 14:23 44.11997 126.04313 32367 ft 433 kts
2026-04-23 14:23 44.14901 126.04984 31717 ft 428 kts
2026-04-23 14:23 44.17844 126.05581 30976 ft 429 kts
2026-04-23 14:24 44.20801 126.06196 30233 ft 430 kts
2026-04-23 14:24 44.23768 126.06834 29376 ft 432 kts
2026-04-23 14:24 44.26742 126.07489 28524 ft 433 kts
2026-04-23 14:24 44.29715 126.08154 27783 ft 431 kts
2026-04-23 14:25 44.32659 126.08816 27178 ft 426 kts
2026-04-23 14:25 44.35575 126.09470 26592 ft 423 kts
2026-04-23 14:25 44.38468 126.10118 26001 ft 419 kts
2026-04-23 14:25 44.41352 126.10756 25173 ft 421 kts
2026-04-23 14:26 44.44235 126.11392 24550 ft 419 kts
2026-04-23 14:26 44.47100 126.12025 23966 ft 416 kts
2026-04-23 14:26 44.49952 126.12657 23332 ft 414 kts
2026-04-23 14:26 44.52787 126.13278 22589 ft 412 kts
2026-04-23 14:27 44.55611 126.13885 21958 ft 409 kts
2026-04-23 14:27 44.58415 126.14487 21374 ft 405 kts
2026-04-23 14:27 44.61187 126.15085 20796 ft 402 kts
2026-04-23 14:27 44.63906 126.15693 20171 ft 400 kts
2026-04-23 14:28 44.66642 126.16318 19602 ft 397 kts
2026-04-23 14:28 44.69363 126.16940 19048 ft 395 kts
2026-04-23 14:28 44.72067 126.17549 18496 ft 392 kts
2026-04-23 14:28 44.74768 126.17940 17800 ft 391 kts
2026-04-23 14:29 44.77472 126.18162 17202 ft 387 kts 359°
2026-04-23 14:29 44.80154 126.18349 16638 ft 384 kts 360°
2026-04-23 14:29 44.82816 126.18546 16084 ft 381 kts
2026-04-23 14:29 44.85453 126.18762 15547 ft 378 kts
2026-04-23 14:30 44.88071 126.18992 15018 ft 376 kts
2026-04-23 14:30 44.90668 126.19228 14492 ft 373 kts
2026-04-23 14:30 44.93253 126.19465 13963 ft 371 kts
2026-04-23 14:30 44.95823 126.19700 13346 ft 370 kts
2026-04-23 14:31 44.98385 126.19934 12770 ft 368 kts
2026-04-23 14:31 45.00933 126.20167 12229 ft 365 kts
2026-04-23 14:31 45.03413 126.20102 11708 ft 359 kts 346°
2026-04-23 14:31 45.05667 126.18767 11241 ft 349 kts 324°
2026-04-23 14:32 45.07400 126.16452 10985 ft 336 kts 307°
2026-04-23 14:32 45.08559 126.13675 10811 ft 323 kts 290°
2026-04-23 14:32 45.09236 126.10711 10687 ft 310 kts 285°
2026-04-23 14:32 45.09807 126.07820 10538 ft 300 kts 284°
2026-04-23 14:33 45.10351 126.05018 10410 ft 291 kts 284°
2026-04-23 14:33 45.10884 126.02305 10292 ft 282 kts 284°
2026-04-23 14:33 45.11406 125.99676 10166 ft 273 kts 284°
2026-04-23 14:33 45.11917 125.97130 10052 ft 265 kts 285°
2026-04-23 14:34 45.12416 125.94664 9928 ft 257 kts 285°
2026-04-23 14:34 45.12907 125.92234 9644 ft 256 kts 284°
2026-04-23 14:34 45.13395 125.89823 9375 ft 254 kts 285°
2026-04-23 14:34 45.13884 125.87432 9110 ft 252 kts 287°
2026-04-23 14:35 45.14751 125.85295 8864 ft 251 kts 308°
2026-04-23 14:35 45.15874 125.83416 8604 ft 249 kts 308°
2026-04-23 14:35 45.16977 125.81528 8340 ft 248 kts 307°
2026-04-23 14:35 45.18126 125.79713 8064 ft 248 kts 320°
2026-04-23 14:36 45.19710 125.78763 7809 ft 253 kts 352°
2026-04-23 14:36 45.21463 125.79083 7593 ft 261 kts 22°
2026-04-23 14:36 45.23011 125.80451 7511 ft 265 kts 37°
2026-04-23 14:36 45.24449 125.82117 7359 ft 266 kts 39°
2026-04-23 14:37 45.25850 125.83780 7224 ft 259 kts 38°
2026-04-23 14:37 45.27203 125.85383 7049 ft 255 kts 38°
2026-04-23 14:37 45.28568 125.86984 6821 ft 254 kts 38°
2026-04-23 14:37 45.29930 125.88566 6584 ft 252 kts 38°
2026-04-23 14:38 45.31286 125.90135 6335 ft 251 kts 38°
2026-04-23 14:38 45.32640 125.91701 6082 ft 250 kts 38°
2026-04-23 14:38 45.33802 125.93042 5855 ft 250 kts 38°
2026-04-23 14:38 45.35162 125.94616 5590 ft 250 kts 38°
2026-04-23 14:39 45.36512 125.96177 5321 ft 250 kts 39°
2026-04-23 14:39 45.37859 125.97739 5041 ft 250 kts 39°
2026-04-23 14:39 45.39207 125.99303 4758 ft 250 kts 39°
2026-04-23 14:39 45.40558 126.00869 4471 ft 250 kts 40°
2026-04-23 14:40 45.41909 126.02437 4205 ft 250 kts 40°
2026-04-23 14:40 45.43270 126.03985 3923 ft 251 kts 39°
2026-04-23 14:40 45.44635 126.05524 3655 ft 250 kts 40°
2026-04-23 14:40 45.45977 126.07057 3509 ft 245 kts 40°
2026-04-23 14:41 45.47284 126.08583 3202 ft 239 kts 41°
2026-04-23 14:41 45.48533 126.10052 2861 ft 226 kts 42°
2026-04-23 14:41 45.49700 126.11427 2564 ft 215 kts 43°
2026-04-23 14:41 45.50679 126.12577 2321 ft 204 kts 44°
2026-04-23 14:42 45.51742 126.13826 2054 ft 192 kts 44°
2026-04-23 14:42 45.52739 126.14998 1809 ft 180 kts 45°
2026-04-23 14:42 45.53657 126.16078 1582 ft 162 kts 46°
2026-04-23 14:42 45.54489 126.17058 1327 ft 151 kts 45°
2026-04-23 14:43 45.55300 126.18013 1115 ft 151 kts 43°
2026-04-23 14:43 45.56100 126.18967 927 ft 149 kts 41°
2026-04-23 14:43 45.56892 126.19889 753 ft 145 kts 41°
2026-04-23 14:43 45.57669 126.20808 562 ft 146 kts 40°
2026-04-23 14:44 45.58177 126.21402 510 ft 136 kts 41°
2026-04-23 14:44 45.58955 126.22312 486 ft 97 kts 39°
2026-04-23 14:44 45.59352 126.22774 481 ft 46 kts 39°
2026-04-23 14:44 45.59508 126.22906 479 ft 19 kts 13°
2026-04-23 14:45 45.59636 126.22944 481 ft 19 kts 12°
2026-04-23 14:45 45.59759 126.22989 478 ft 18 kts 22°
2026-04-23 14:45 45.59859 126.23092 476 ft 17 kts 40°
2026-04-23 14:45 45.59951 126.23201 473 ft 17 kts 40°
2026-04-23 14:46 45.60039 126.23306 470 ft 16 kts 38°
2026-04-23 14:46 45.60125 126.23405 471 ft 16 kts 39°
2026-04-23 14:46 45.60207 126.23501 471 ft 15 kts 40°
2026-04-23 14:46 45.60293 126.23605 471 ft 11 kts 40°
2026-04-23 14:47 45.60363 126.23587 471 ft 13 kts 311°
2026-04-23 14:47 45.60426 126.23481 469 ft 15 kts 310°
2026-04-23 14:47 45.60500 126.23354 467 ft 18 kts 309°
2026-04-23 14:47 45.60577 126.23219 469 ft 17 kts 309°
2026-04-23 14:48 45.60653 126.23090 468 ft 17 kts 310°
2026-04-23 14:48 45.60727 126.22966 466 ft 16 kts 309°
2026-04-23 14:48 45.60796 126.22847 467 ft 13 kts 310°
2026-04-23 14:48 45.60848 126.22829 467 ft 8 kts 28°
2026-04-23 14:49 45.60895 126.22880 465 ft 9 kts 38°
2026-04-23 14:49 45.60956 126.22950 465 ft 13 kts 39°
2026-04-23 14:49 45.61009 126.23011 466 ft 16 kts 39°
2026-04-23 14:49 45.61143 126.23170 465 ft 21 kts 40°
2026-04-23 14:50 45.61253 126.23298 465 ft 20 kts 39°
2026-04-23 14:50 45.61336 126.23396 463 ft 5 kts 39°
2026-04-23 14:50 45.61363 126.23398 465 ft 4 kts 344°
2026-04-23 14:50 45.61385 126.23376 464 ft 4 kts 323°
2026-04-23 14:51 45.61401 126.23364 465 ft 4 kts 339°
2026-04-23 14:51 45.61430 126.23376 465 ft 6 kts 31°
2026-04-23 14:51 45.61473 126.23424 464 ft 10 kts 41°
2026-04-23 14:51 45.61516 126.23424 464 ft 7 kts 323°
2026-04-23 14:52 45.61543 126.23389 464 ft 0 kts 315°
2026-04-23 14:52 45.61543 126.23388 464 ft 0 kts 315°